Location: Berlin
(42.3812°N, 71.6370°W)
Time: 11:34:41
(UTC+00:00)

Cosmos 1943 - Pass Details

Date: 26 February 2026
Orbit: 830 x 850 km, 71.0° (Epoch: 8 March)

Event Time Altitude Azimuth Distance (km) Brightness Sun altitude
Rises 23:09:05 0° 333° (NNW) 3,421 6.7 -7.5°
Reaches altitude 10° 23:11:33 10° 331° (NNW) 2,480 6.0 -7.9°
Maximum altitude 23:17:12 67° 250° (WSW) 916 3.7 -9.0°
Drops below altitude 10° 23:22:47 10° 168° (SSE) 2,454 5.5 -10.0°
Sets 23:25:13 0° 166° (SSE) 3,382 6.2 -10.4°
